Tracking 19706 objects as of 15-Jun-2019
HD Live streaming from Space Station
objects crossing your sky now

SL-24 DEB

Track SL-24 DEB now!
10-day predictions


NORAD ID: 37586
Int'l Code: 2004-025L
Perigee: 674.8 km
Apogee: 1,152.1 km
Inclination: 98.2 °
Period: 103.1 minutes
Semi major axis: 7284 km
RCS: 0.003 m2 (small)
Launch date: June 29, 2004
Source: Commonwealth of Independent States (former USSR) (CIS)
Launch site: TYURATAM MISSILE AND SPACE COMPLEX (TTMTR)

Note: This is SATELLITE DEBRIS
aabbcc
Your satellite tracking list
Your tracking list is empty




NASA's NSSDC Master Catalog

Two Line Element Set (TLE):
1 37586U 04025L   19165.63303355 +.00000158 +00000-0 +89537-4 0  9990
2 37586 098.2038 048.3850 0327588 079.6341 284.1572 13.96399465448495
Source of the keplerian elements: AFSPC